Flag for Japan Weather past 2 weeks in Utsunomiya, Japan

Now
74 °F

Mild.


Feels Like: 74 °F
Forecast: 64 / 72 °F
Wind: 9 mph from Northeast

Location: Mito

Current Time: Aug 31, 2014 at 5:38:21 PM

Latest Report: Aug 31, 2014 at 5:00 PM


Visibility: N/A

Pressure: 29.96 "Hg

Humidity: 78%

Dew point: 67 °F

Location of UtsunomiyaLocation

Historic Weather in Utsunomiya — Graph

°F

Utsunomiya temperature yesterday

Maximum temperature yesterday: 76 °F (at 2:00 PM)
Minimum temperature yesterday: 66 °F (at 11:00 PM)
Average temperature yesterday: 71 °F

Past Weeks' High & Low Weather Summary

 TemperatureHumidityPressure
High94 °F (Aug 20, 12:00 PM)99% (Aug 18, 3:00 AM)30.02 "Hg (Aug 18, 3:00 AM)
Low65 °F (Aug 31, 3:00 AM)52% (Aug 24, 2:00 PM)29.78 "Hg (Aug 26, 3:00 PM)
Average76 °F83%29.92 "Hg
* Reported Aug 16 4:00 PM — Aug 31 4:00 PM, Utsunomiya, Weather by CustomWeather, © 2014

Note: Actual official high and low records may vary slightly from our data, if they occured in-between our weather recording intervals... More about our weather records

Advertising

Utsunomiya weather history for previous 24 hours

 ConditionsComfort  
Time TempWeatherWind HumidityBarometerVisibility
4:00 PM
Aug 31
76 °FMild.12 mph73%29.95 "HgN/A
3:00 PM77 °FOvercast.9 mph69%29.95 "Hg19 mi
2:00 PM77 °FMild.7 mph70%29.94 "HgN/A
1:00 PM76 °FMild.12 mph70%29.96 "HgN/A
12:00 PM76 °FMild.8 mph68%29.96 "HgN/A
11:00 AM77 °FMild.9 mph66%29.97 "HgN/A
10:00 AM75 °FMild.8 mph66%29.98 "HgN/A
9:00 AM73 °FOvercast.3 mph74%29.97 "Hg19 mi
8:00 AM72 °FMild.3 mph79%29.96 "HgN/A
7:00 AM69 °FMild.5 mph87%29.94 "HgN/A
6:00 AM66 °FMild.2 mph92%29.94 "HgN/A
5:00 AM66 °FMild.2 mph92%29.95 "HgN/A
4:00 AM65 °FMild.3 mph93%29.94 "HgN/A
3:00 AM65 °FOvercast.2 mph95%29.94 "Hg12 mi
2:00 AM66 °FMild.2 mph92%29.95 "HgN/A
1:00 AM66 °FMild.3 mph92%29.94 "HgN/A
12:00 AM65 °FMild.2 mph95%29.93 "HgN/A
11:00 PM
Aug 30
66 °FMild.2 mph95%29.95 "HgN/A
10:00 PM69 °FMild.5 mph85%29.95 "HgN/A
9:00 PM69 °FPassing clouds.3 mph89%29.94 "Hg12 mi
8:00 PM70 °FMild.7 mph87%29.94 "HgN/A
7:00 PM71 °FMild.10 mph86%29.93 "HgN/A
6:00 PM72 °FMild.9 mph79%29.91 "HgN/A
5:00 PM73 °FMild.9 mph72%29.92 "HgN/A
Weather by CustomWeather, © 2014

See weather overviewHow to use our weather pages